Location: Zapote
(9.9191°N, 84.0597°W)
Time: 13:53:45
(UTC-06:00)

A-11 Canister half - Visible Passes

Search period start: 28 February 2021 00:00
Search period end: 10 March 2021 00:00
Orbit: 1524 x 1684 km, 47.3° (Epoch: 28 February)

Date Brightness Start Highest point End Pass type
(mag) Time Alt. Az. Time Alt. Az. Time Alt. Az.
28 Feb 11.1 01:54:39 14° NE 01:54:39 14° NE 01:55:43 10° NE visible
28 Feb 9.9 03:52:59 29° NNW 03:52:59 29° NNW 03:59:28 10° NNE visible
01 Mar 10.1 03:32:54 27° NNW 03:32:54 27° NNW 03:37:58 10° NNE visible
02 Mar 10.3 03:12:43 23° N 03:12:43 23° N 03:16:28 10° NNE visible
03 Mar 10.6 02:52:27 19° N 02:52:27 19° N 02:54:56 10° NNE visible
04 Mar 10.9 02:32:07 15° NNE 02:32:07 15° NNE 02:33:24 10° NNE visible
05 Mar 11.1 02:11:42 11° NNE 02:11:42 11° NNE 02:11:52 10° NNE visible
